When you browse on this site, cookies collect data to enhance your experience and personalize the content and advertising you see.
Visit our Privacy Policy to learn more. By continuing to use the site, you agree to this use of cookies and data.
  • In Denmark
  • List of Countries
  • For 7 days
  • Water Temperature
  • Satellite Maps
  • Weather Map
  • Weather Widgets
  • user-avatar
    Login

    Hourly Weather Guldala

    Today, 19 December, Wednesday

    Time Temperature Precipitation Wind Pressure Humidity
    00:00 -3°C° 0 mm 2 mps 704 mmHg 64%
    01:00 -3°C° 0 mm 2 mps 704 mmHg 64%
    02:00 -3°C° 0 mm 2 mps 704 mmHg 64%
    03:00 -3°C° 0 mm 2 mps 704 mmHg 66%
    04:00 -3°C° 0 mm 2 mps 704 mmHg 69%
    05:00 -3°C° 0 mm 2 mps 704 mmHg 76%
    06:00 -3°C° 0.1 mm 2 mps 704 mmHg 77%
    07:00 -2°C° 0.1 mm 2 mps 704 mmHg 78%
    08:00 0°C° 0.1 mm 1 mps 704 mmHg 79%
    09:00 -1°C° 0.1 mm 2 mps 704 mmHg 77%
    10:00 -1°C° 0.1 mm 2 mps 704 mmHg 76%
    11:00 +1°C° 0.1 mm 2 mps 704 mmHg 75%
    12:00 +1°C° 0.2 mm 2 mps 704 mmHg 75%
    13:00 +1°C° 0.2 mm 2 mps 704 mmHg 75%
    14:00 +2°C° 0.2 mm 2 mps 704 mmHg 76%
    15:00 +1°C° 0.2 mm 2 mps 704 mmHg 78%
    16:00 +1°C° 0.2 mm 2 mps 704 mmHg 81%
    17:00 -1°C° 0.2 mm 2 mps 704 mmHg 83%
    18:00 -1°C° 0.2 mm 2 mps 705 mmHg 84%
    19:00 -1°C° 0.2 mm 2 mps 705 mmHg 84%
    20:00 -1°C° 0.2 mm 2 mps 705 mmHg 84%
    21:00 -1°C° 0.2 mm 2 mps 706 mmHg 84%
    22:00 +1°C° 0.2 mm 1 mps 706 mmHg 85%
    23:00 +1°C° 0.2 mm 1 mps 706 mmHg 85%

    Tomorrow, 20 December, Thursday

    Time Temperature Precipitation Wind Pressure Humidity
    00:00 +1°C° 0.2 mm 1 mps 706 mmHg 86%
    01:00 +1°C° 0.2 mm 1 mps 707 mmHg 87%
    02:00 +1°C° 0.2 mm 1 mps 707 mmHg 89%
    03:00 0°C° 0.3 mm 1 mps 707 mmHg 89%
    04:00 0°C° 0.3 mm 1 mps 708 mmHg 90%
    05:00 0°C° 0.3 mm 1 mps 708 mmHg 91%
    06:00 0°C° 0.3 mm 1 mps 709 mmHg 91%
    07:00 0°C° 0.3 mm 1 mps 709 mmHg 91%
    08:00 0°C° 0.3 mm 1 mps 710 mmHg 91%
    09:00 0°C° 0.3 mm 1 mps 710 mmHg 90%
    10:00 +1°C° 0.3 mm 1 mps 710 mmHg 88%
    11:00 -1°C° 0.3 mm 2 mps 710 mmHg 87%
    12:00 -1°C° 0.2 mm 2 mps 710 mmHg 87%
    13:00 -1°C° 0.2 mm 2 mps 710 mmHg 87%
    14:00 -1°C° 0.2 mm 2 mps 710 mmHg 87%
    15:00 -2°C° 0.2 mm 2 mps 711 mmHg 88%
    16:00 -2°C° 0.2 mm 2 mps 711 mmHg 90%
    17:00 -3°C° 0.2 mm 2 mps 712 mmHg 92%
    18:00 -3°C° 0.1 mm 2 mps 712 mmHg 91%
    19:00 -4°C° 0.1 mm 2 mps 712 mmHg 91%
    20:00 -4°C° 0.1 mm 2 mps 712 mmHg 90%
    21:00 -5°C° 0 mm 2 mps 713 mmHg 89%
    22:00 -5°C° 0 mm 2 mps 713 mmHg 87%
    23:00 -5°C° 0 mm 2 mps 713 mmHg 86%

    Day after tomorrow, 21 December, Friday

    Time Temperature Precipitation Wind Pressure Humidity
    00:00 -5°C° 0 mm 2 mps 713 mmHg 84%
    01:00 -5°C° 0 mm 2 mps 713 mmHg 82%
    02:00 -6°C° 0 mm 2 mps 713 mmHg 80%
    03:00 -6°C° 0 mm 2 mps 713 mmHg 77%
    04:00 -6°C° 0 mm 2 mps 713 mmHg 74%
    05:00 -7°C° 0 mm 3 mps 713 mmHg 71%
    06:00 -7°C° 0 mm 3 mps 713 mmHg 70%
    07:00 -7°C° 0 mm 3 mps 713 mmHg 69%
    08:00 -7°C° 0 mm 3 mps 713 mmHg 68%
    09:00 -6°C° 0 mm 3 mps 712 mmHg 69%
    10:00 -5°C° 0 mm 3 mps 712 mmHg 70%
    11:00 -2°C° 0 mm 3 mps 711 mmHg 72%
    12:00 -2°C° 0 mm 3 mps 710 mmHg 72%
    13:00 -2°C° 0 mm 3 mps 710 mmHg 73%
    14:00 -1°C° 0 mm 3 mps 709 mmHg 74%
    15:00 -2°C° 0 mm 3 mps 709 mmHg 76%
    16:00 -4°C° 0 mm 3 mps 709 mmHg 77%
    17:00 -5°C° 0 mm 4 mps 709 mmHg 79%
    18:00 -5°C° 0 mm 4 mps 709 mmHg 77%
    19:00 -5°C° 0 mm 4 mps 709 mmHg 75%
    20:00 -6°C° 0 mm 5 mps 708 mmHg 73%
    21:00 -6°C° 0 mm 5 mps 708 mmHg 70%
    22:00 -5°C° 0 mm 5 mps 707 mmHg 67%
    23:00 -5°C° 0 mm 5 mps 707 mmHg 65%

    22 December, Saturday

    Time Temperature Precipitation Wind Pressure Humidity
    00:00 -5°C° 0 mm 5 mps 706 mmHg 62%
    01:00 -5°C° 0 mm 5 mps 706 mmHg 60%
    02:00 -5°C° 0 mm 5 mps 705 mmHg 58%
    03:00 -4°C° 0 mm 5 mps 705 mmHg 56%
    04:00 -4°C° 0 mm 5 mps 704 mmHg 55%
    05:00 -4°C° 0 mm 5 mps 704 mmHg 54%
    06:00 -4°C° 0 mm 5 mps 704 mmHg 54%
    07:00 -3°C° 0 mm 4 mps 704 mmHg 53%
    08:00 -3°C° 0 mm 4 mps 703 mmHg 53%
    09:00 -1°C° 0 mm 4 mps 703 mmHg 53%
    10:00 0°C° 0 mm 4 mps 703 mmHg 52%
    11:00 +1°C° 0 mm 4 mps 702 mmHg 52%
    12:00 +1°C° 0 mm 4 mps 702 mmHg 53%
    13:00 +1°C° 0 mm 4 mps 702 mmHg 55%
    14:00 +2°C° 0 mm 3 mps 701 mmHg 57%
    15:00 +1°C° 0 mm 3 mps 701 mmHg 59%
    16:00 +1°C° 0 mm 2 mps 702 mmHg 62%
    17:00 -1°C° 0 mm 2 mps 702 mmHg 64%
    18:00 -1°C° 0.1 mm 2 mps 702 mmHg 65%
    19:00 +1°C° 0.1 mm 2 mps 702 mmHg 65%
    20:00 +1°C° 0.1 mm 2 mps 702 mmHg 65%
    21:00 +1°C° 0.1 mm 2 mps 702 mmHg 65%
    22:00 +1°C° 0.1 mm 2 mps 702 mmHg 66%
    23:00 +2°C° 0.1 mm 1 mps 702 mmHg 66%

    23 December, Sunday

    Time Temperature Precipitation Wind Pressure Humidity
    00:00 +2°C° 0.1 mm 1 mps 702 mmHg 66%
    01:00 +2°C° 0.1 mm 1 mps 702 mmHg 66%
    02:00 +2°C° 0.1 mm 1 mps 702 mmHg 66%
    03:00 +2°C° 0.1 mm 1 mps 702 mmHg 67%
    04:00 +2°C° 0.1 mm 1 mps 703 mmHg 67%
    05:00 +2°C° 0.1 mm 1 mps 703 mmHg 67%
    06:00 +2°C° 0.1 mm 1 mps 703 mmHg 67%
    07:00 +2°C° 0.1 mm 1 mps 704 mmHg 67%
    08:00 +2°C° 0.1 mm 1 mps 704 mmHg 67%
    09:00 +3°C° 0.1 mm 1 mps 704 mmHg 66%
    10:00 +4°C° 0.1 mm 1 mps 704 mmHg 65%
    11:00 +4°C° 0.1 mm 1 mps 704 mmHg 64%
    12:00 +4°C° 0.1 mm 1 mps 704 mmHg 65%
    13:00 +5°C° 0.1 mm 1 mps 704 mmHg 66%
    14:00 +5°C° 0.1 mm 1 mps 704 mmHg 67%
    15:00 +4°C° 0.1 mm 1 mps 704 mmHg 70%
    16:00 +3°C° 0.1 mm 1 mps 704 mmHg 72%
    17:00 +2°C° 0.1 mm 1 mps 705 mmHg 74%
    18:00 +2°C° 0.1 mm 1 mps 705 mmHg 74%
    19:00 +2°C° 0.1 mm 1 mps 705 mmHg 75%
    20:00 +2°C° 0.1 mm 1 mps 705 mmHg 75%
    21:00 +2°C° 0.1 mm 1 mps 705 mmHg 76%
    22:00 +2°C° 0.1 mm 1 mps 705 mmHg 77%
    23:00 +1°C° 0.1 mm 1 mps 705 mmHg 78%

    24 December, Monday

    Time Temperature Precipitation Wind Pressure Humidity
    00:00 +1°C° 0.1 mm 1 mps 705 mmHg 79%
    01:00 +1°C° 0.1 mm 1 mps 705 mmHg 79%
    02:00 +1°C° 0.1 mm 1 mps 705 mmHg 80%
    03:00 +1°C° 0.1 mm 1 mps 706 mmHg 80%
    04:00 +1°C° 0.1 mm 1 mps 706 mmHg 81%
    05:00 +1°C° 0.1 mm 1 mps 706 mmHg 81%
    06:00 +1°C° 0.1 mm 1 mps 706 mmHg 82%
    07:00 +1°C° 0.1 mm 1 mps 706 mmHg 82%
    08:00 +1°C° 0.1 mm 1 mps 706 mmHg 82%
    09:00 +1°C° 0.1 mm 2 mps 706 mmHg 81%
    10:00 +1°C° 0.1 mm 2 mps 706 mmHg 79%
    11:00 +2°C° 0.1 mm 2 mps 706 mmHg 78%
    12:00 +2°C° 0.1 mm 2 mps 705 mmHg 78%
    13:00 +2°C° 0.1 mm 2 mps 705 mmHg 78%
    14:00 +2°C° 0.1 mm 2 mps 705 mmHg 79%
    15:00 +2°C° 0.2 mm 2 mps 705 mmHg 81%
    16:00 +1°C° 0.2 mm 2 mps 705 mmHg 84%
    17:00 +2°C° 0.2 mm 1 mps 706 mmHg 86%
    18:00 +1°C° 0.1 mm 1 mps 706 mmHg 85%
    19:00 -1°C° 0.1 mm 2 mps 706 mmHg 85%
    20:00 -1°C° 0.1 mm 2 mps 706 mmHg 84%
    21:00 -1°C° 0.1 mm 2 mps 706 mmHg 83%
    22:00 -1°C° 0.1 mm 2 mps 706 mmHg 82%
    23:00 -1°C° 0.1 mm 2 mps 706 mmHg 81%
    Show more